Time,TemperatureF,DewpointF,PressureIn,WindDirection,WindDirectionDegrees,WindSpeedMPH,WindSpeedGustMPH,Humidity,HourlyPrecipIn,Conditions,Clouds,dailyrainin,SoftwareType,DateUTC
2013-01-13 00:01:00,31.9,18.0,29.97,East,82,0.0,2.0,57,0.00,,,0.00,weatherlink.com 1.10,2013-01-13 06:01:00,
2013-01-13 00:16:00,31.7,19.0,29.97,East,82,0.0,1.0,59,0.00,,,0.00,weatherlink.com 1.10,2013-01-13 06:16:00,
2013-01-13 00:31:00,32.7,17.0,29.98,East,82,0.0,2.0,52,0.00,,,0.00,weatherlink.com 1.10,2013-01-13 06:31:00,
2013-01-13 00:46:00,33.1,15.0,29.98,East,81,3.0,9.0,48,0.00,,,0.00,weatherlink.com 1.10,2013-01-13 06:46:00,
2013-01-13 01:01:00,32.9,15.0,29.99,ENE,67,4.0,8.0,47,0.00,,,0.00,weatherlink.com 1.10,2013-01-13 07:01:00,
2013-01-13 01:16:00,32.3,14.0,30.00,NE,40,2.0,8.0,47,0.00,,,0.00,weatherlink.com 1.10,2013-01-13 07:16:00,
2013-01-13 01:31:00,31.9,14.0,30.00,NE,40,2.0,5.0,47,0.00,,,0.00,weatherlink.com 1.10,2013-01-13 07:31:00,
2013-01-13 01:46:00,32.2,13.0,30.01,NE,40,0.0,3.0,46,0.00,,,0.00,weatherlink.com 1.10,2013-01-13 07:46:00,
2013-01-13 02:01:00,30.7,14.0,30.01,NE,40,0.0,1.0,51,0.00,,,0.00,weatherlink.com 1.10,2013-01-13 08:01:00,
2013-01-13 02:16:00,30.6,14.0,30.02,NE,40,0.0,1.0,51,0.00,,,0.00,weatherlink.com 1.10,2013-01-13 08:16:00,
2013-01-13 02:31:00,31.0,14.0,30.02,NE,40,0.0,1.0,49,0.00,,,0.00,weatherlink.com 1.10,2013-01-13 08:31:00,
2013-01-13 02:47:00,31.0,14.0,30.03,NE,40,0.0,1.0,49,0.00,,,0.00,weatherlink.com 1.10,2013-01-13 08:47:00,
2013-01-13 03:02:00,29.8,14.0,30.03,NE,40,0.0,0.0,53,0.00,,,0.00,weatherlink.com 1.10,2013-01-13 09:02:00,
2013-01-13 03:17:00,28.3,15.0,30.04,NE,40,0.0,0.0,58,0.00,,,0.00,weatherlink.com 1.10,2013-01-13 09:17:00,
2013-01-13 03:32:00,28.7,16.0,30.04,NE,40,0.0,0.0,59,0.00,,,0.00,weatherlink.com 1.10,2013-01-13 09:32:00,
2013-01-13 03:47:00,29.0,14.0,30.05,NE,40,0.0,0.0,54,0.00,,,0.00,weatherlink.com 1.10,2013-01-13 09:47:00,
2013-01-13 04:02:00,29.3,14.0,30.05,NE,40,0.0,0.0,52,0.00,,,0.00,weatherlink.com 1.10,2013-01-13 10:02:00,
2013-01-13 04:17:00,29.9,13.0,30.05,NE,40,0.0,2.0,49,0.00,,,0.00,weatherlink.com 1.10,2013-01-13 10:17:00,
2013-01-13 04:32:00,29.8,13.0,30.05,NE,40,0.0,1.0,49,0.00,,,0.00,weatherlink.com 1.10,2013-01-13 10:32:00,
2013-01-13 04:47:00,29.5,13.0,30.05,NE,40,0.0,1.0,50,0.00,,,0.00,weatherlink.com 1.10,2013-01-13 10:47:00,
2013-01-13 05:02:00,29.7,12.0,30.06,NE,40,0.0,1.0,48,0.00,,,0.00,weatherlink.com 1.10,2013-01-13 11:02:00,
2013-01-13 05:17:00,28.9,12.0,30.06,NE,40,0.0,0.0,50,0.00,,,0.00,weatherlink.com 1.10,2013-01-13 11:17:00,
2013-01-13 05:32:00,28.2,14.0,30.07,NE,40,0.0,0.0,55,0.00,,,0.00,weatherlink.com 1.10,2013-01-13 11:32:00,
2013-01-13 05:47:00,27.8,13.0,30.08,NE,40,0.0,1.0,55,0.00,,,0.00,weatherlink.com 1.10,2013-01-13 11:47:00,
2013-01-13 06:02:00,27.3,13.0,30.08,NE,40,0.0,1.0,56,0.00,,,0.00,weatherlink.com 1.10,2013-01-13 12:02:00,
2013-01-13 06:17:00,27.2,14.0,30.09,NE,40,0.0,0.0,58,0.00,,,0.00,weatherlink.com 1.10,2013-01-13 12:17:00,
2013-01-13 06:32:00,27.6,13.0,30.10,NE,40,0.0,0.0,55,0.00,,,0.00,weatherlink.com 1.10,2013-01-13 12:32:00,
2013-01-13 06:47:00,27.8,13.0,30.11,NE,40,0.0,0.0,53,0.00,,,0.00,weatherlink.com 1.10,2013-01-13 12:47:00,
2013-01-13 07:02:00,27.6,13.0,30.12,NE,40,0.0,0.0,54,0.00,,,0.00,weatherlink.com 1.10,2013-01-13 13:02:00,
2013-01-13 07:17:00,27.3,13.0,30.12,NE,40,0.0,0.0,55,0.00,,,0.00,weatherlink.com 1.10,2013-01-13 13:17:00,
2013-01-13 07:32:00,26.5,13.0,30.13,NE,40,0.0,0.0,58,0.00,,,0.00,weatherlink.com 1.10,2013-01-13 13:32:00,
2013-01-13 07:47:00,28.0,10.0,30.14,NE,40,0.0,1.0,46,0.00,,,0.00,weatherlink.com 1.10,2013-01-13 13:47:00,
2013-01-13 08:02:00,28.1,10.0,30.14,NE,40,0.0,1.0,46,0.00,,,0.00,weatherlink.com 1.10,2013-01-13 14:02:00,
2013-01-13 08:17:00,28.7,10.0,30.14,NE,40,0.0,2.0,46,0.00,,,0.00,weatherlink.com 1.10,2013-01-13 14:17:00,
2013-01-13 08:32:00,28.8,10.0,30.15,NE,40,1.0,2.0,46,0.00,,,0.00,weatherlink.com 1.10,2013-01-13 14:32:00,
2013-01-13 08:47:00,29.4,12.0,30.16,NE,40,5.0,5.0,48,0.00,,,0.00,weatherlink.com 1.10,2013-01-13 14:47:00,
2013-01-13 09:02:00,29.4,13.0,30.16,NE,40,1.0,4.0,51,0.00,,,0.00,weatherlink.com 1.10,2013-01-13 15:02:00,
2013-01-13 09:17:00,30.3,13.0,30.17,NE,40,0.0,5.0,48,0.00,,,0.00,weatherlink.com 1.10,2013-01-13 15:17:00,
2013-01-13 09:33:00,30.4,12.0,30.17,NE,40,1.0,5.0,46,0.00,,,0.00,weatherlink.com 1.10,2013-01-13 15:33:00,
2013-01-13 09:48:00,31.0,12.0,30.18,NE,40,0.0,5.0,45,0.00,,,0.00,weatherlink.com 1.10,2013-01-13 15:48:00,
2013-01-13 10:03:00,31.6,12.0,30.18,NE,40,1.0,4.0,45,0.00,,,0.00,weatherlink.com 1.10,2013-01-13 16:03:00,
2013-01-13 10:18:00,32.5,13.0,30.18,NE,40,1.0,6.0,45,0.00,,,0.00,weatherlink.com 1.10,2013-01-13 16:18:00,
2013-01-13 10:33:00,33.4,13.0,30.18,NE,40,0.0,5.0,43,0.00,,,0.00,weatherlink.com 1.10,2013-01-13 16:33:00,
2013-01-13 11:03:00,34.6,11.0,30.16,NE,35,0.0,5.0,38,0.00,,,0.00,weatherlink.com 1.10,2013-01-13 17:03:00,
2013-01-13 11:18:00,35.3,11.0,30.16,NE,51,1.0,8.0,37,0.00,,,0.00,weatherlink.com 1.10,2013-01-13 17:18:00,
2013-01-13 11:33:00,35.6,11.0,30.16,ENE,67,4.0,8.0,36,0.00,,,0.00,weatherlink.com 1.10,2013-01-13 17:33:00,
2013-01-13 11:48:00,36.6,12.0,30.15,ENE,67,3.0,5.0,36,0.00,,,0.00,weatherlink.com 1.10,2013-01-13 17:48:00,
2013-01-13 12:03:00,37.9,12.0,30.15,ENE,77,0.0,8.0,35,0.00,,,0.00,weatherlink.com 1.10,2013-01-13 18:03:00,
2013-01-13 12:18:00,37.8,12.0,30.14,East,100,0.0,8.0,34,0.00,,,0.00,weatherlink.com 1.10,2013-01-13 18:18:00,
2013-01-13 12:33:00,37.8,11.0,30.12,ESE,104,0.0,10.0,33,0.00,,,0.00,weatherlink.com 1.10,2013-01-13 18:33:00,
2013-01-13 12:48:00,38.4,12.0,30.11,East,97,3.0,8.0,34,0.00,,,0.00,weatherlink.com 1.10,2013-01-13 18:48:00,
2013-01-13 13:03:00,38.9,12.0,30.10,East,96,5.0,8.0,33,0.00,,,0.00,weatherlink.com 1.10,2013-01-13 19:03:00,
2013-01-13 13:18:00,39.8,12.0,30.09,East,96,1.0,6.0,32,0.00,,,0.00,weatherlink.com 1.10,2013-01-13 19:18:00,
2013-01-13 13:33:00,40.2,14.0,30.08,East,96,1.0,8.0,34,0.00,,,0.00,weatherlink.com 1.10,2013-01-13 19:33:00,
2013-01-13 13:48:00,41.1,15.0,30.07,East,96,1.0,7.0,34,0.00,,,0.00,weatherlink.com 1.10,2013-01-13 19:48:00,
2013-01-13 14:03:00,41.5,15.0,30.05,NE,40,1.0,8.0,34,0.00,,,0.00,weatherlink.com 1.10,2013-01-13 20:03:00,
2013-01-13 14:18:00,42.2,14.0,30.05,NE,40,2.0,7.0,32,0.00,,,0.00,weatherlink.com 1.10,2013-01-13 20:18:00,
2013-01-13 14:34:00,42.1,15.0,30.05,NE,44,2.0,8.0,33,0.00,,,0.00,weatherlink.com 1.10,2013-01-13 20:34:00,
2013-01-13 14:49:00,41.9,14.0,30.04,NE,42,6.0,6.0,32,0.00,,,0.00,weatherlink.com 1.10,2013-01-13 20:49:00,
2013-01-13 15:04:00,42.4,14.0,30.04,East,79,2.0,7.0,31,0.00,,,0.00,weatherlink.com 1.10,2013-01-13 21:04:00,
2013-01-13 15:19:00,43.3,15.0,30.04,ENE,64,0.0,15.0,32,0.00,,,0.00,weatherlink.com 1.10,2013-01-13 21:19:00,
2013-01-13 15:34:00,43.1,16.0,30.04,NE,48,1.0,8.0,34,0.00,,,0.00,weatherlink.com 1.10,2013-01-13 21:34:00,
2013-01-13 15:49:00,43.1,17.0,30.04,NE,45,1.0,9.0,35,0.00,,,0.00,weatherlink.com 1.10,2013-01-13 21:49:00,
2013-01-13 16:04:00,43.3,17.0,30.04,ENE,65,1.0,10.0,35,0.00,,,0.00,weatherlink.com 1.10,2013-01-13 22:04:00,
2013-01-13 16:19:00,42.6,17.0,30.04,ENE,65,4.0,10.0,36,0.00,,,0.00,weatherlink.com 1.10,2013-01-13 22:19:00,
2013-01-13 16:34:00,41.9,17.0,30.04,East,89,1.0,9.0,37,0.00,,,0.00,weatherlink.com 1.10,2013-01-13 22:34:00,
2013-01-13 16:49:00,41.7,17.0,30.04,ENE,71,3.0,10.0,37,0.00,,,0.00,weatherlink.com 1.10,2013-01-13 22:49:00,
2013-01-13 17:04:00,41.1,18.0,30.05,NE,52,0.0,6.0,39,0.00,,,0.00,weatherlink.com 1.10,2013-01-13 23:04:00,
2013-01-13 17:19:00,40.5,19.0,30.05,NE,54,0.0,6.0,42,0.00,,,0.00,weatherlink.com 1.10,2013-01-13 23:19:00,
2013-01-13 17:34:00,39.3,19.0,30.05,NE,51,3.0,8.0,44,0.00,,,0.00,weatherlink.com 1.10,2013-01-13 23:34:00,
2013-01-13 17:49:00,38.2,19.0,30.05,ENE,65,0.0,7.0,46,0.00,,,0.00,weatherlink.com 1.10,2013-01-13 23:49:00,
2013-01-13 18:04:00,36.7,20.0,30.05,NE,46,1.0,9.0,51,0.00,,,0.00,weatherlink.com 1.10,2013-01-14 00:04:00,
2013-01-13 18:19:00,35.5,21.0,30.05,NE,49,1.0,6.0,55,0.00,,,0.00,weatherlink.com 1.10,2013-01-14 00:19:00,
2013-01-13 18:34:00,34.4,21.0,30.06,NE,44,0.0,9.0,58,0.00,,,0.00,weatherlink.com 1.10,2013-01-14 00:34:00,
2013-01-13 18:49:00,34.1,21.0,30.06,NE,51,1.0,7.0,60,0.00,,,0.00,weatherlink.com 1.10,2013-01-14 00:49:00,
2013-01-13 19:04:00,33.6,20.0,30.06,ENE,63,5.0,11.0,59,0.00,,,0.00,weatherlink.com 1.10,2013-01-14 01:04:00,
2013-01-13 19:19:00,32.9,20.0,30.06,ENE,77,3.0,10.0,60,0.00,,,0.00,weatherlink.com 1.10,2013-01-14 01:19:00,
2013-01-13 19:34:00,32.2,20.0,30.06,ENE,77,0.0,5.0,60,0.00,,,0.00,weatherlink.com 1.10,2013-01-14 01:34:00,
2013-01-13 19:49:00,31.8,20.0,30.06,ENE,78,0.0,5.0,61,0.00,,,0.00,weatherlink.com 1.10,2013-01-14 01:49:00,
2013-01-13 20:04:00,31.0,20.0,30.05,ENE,78,1.0,7.0,63,0.00,,,0.00,weatherlink.com 1.10,2013-01-14 02:04:00,
2013-01-13 20:19:00,30.2,20.0,30.06,ENE,78,4.0,7.0,66,0.00,,,0.00,weatherlink.com 1.10,2013-01-14 02:19:00,
2013-01-13 20:34:00,29.9,20.0,30.07,ENE,78,1.0,7.0,67,0.00,,,0.00,weatherlink.com 1.10,2013-01-14 02:34:00,
2013-01-13 20:49:00,29.9,20.0,30.07,ENE,78,5.0,7.0,68,0.00,,,0.00,weatherlink.com 1.10,2013-01-14 02:49:00,
2013-01-13 21:04:00,29.9,20.0,30.07,ENE,78,2.0,7.0,68,0.00,,,0.00,weatherlink.com 1.10,2013-01-14 03:04:00,
2013-01-13 21:19:00,29.5,21.0,30.07,ENE,78,1.0,5.0,70,0.00,,,0.00,weatherlink.com 1.10,2013-01-14 03:19:00,
2013-01-13 21:34:00,29.5,21.0,30.08,ENE,78,1.0,4.0,70,0.00,,,0.00,weatherlink.com 1.10,2013-01-14 03:34:00,
2013-01-13 21:49:00,29.2,21.0,30.08,ENE,78,0.0,4.0,71,0.00,,,0.00,weatherlink.com 1.10,2013-01-14 03:49:00,
2013-01-13 22:04:00,29.8,20.0,30.07,ENE,78,1.0,5.0,68,0.00,,,0.00,weatherlink.com 1.10,2013-01-14 04:04:00,
2013-01-13 22:19:00,29.6,20.0,30.07,ENE,78,1.0,3.0,68,0.00,,,0.00,weatherlink.com 1.10,2013-01-14 04:19:00,
2013-01-13 22:34:00,29.6,20.0,30.07,ENE,78,1.0,4.0,67,0.00,,,0.00,weatherlink.com 1.10,2013-01-14 04:34:00,
2013-01-13 22:49:00,29.8,20.0,30.07,ENE,78,0.0,3.0,66,0.00,,,0.00,weatherlink.com 1.10,2013-01-14 04:49:00,
2013-01-13 23:04:00,29.7,19.0,30.07,ENE,78,0.0,4.0,65,0.00,,,0.00,weatherlink.com 1.10,2013-01-14 05:04:00,
2013-01-13 23:19:00,29.2,19.0,30.07,ENE,78,1.0,3.0,67,0.00,,,0.00,weatherlink.com 1.10,2013-01-14 05:19:00,
2013-01-13 23:34:00,28.9,20.0,30.07,ENE,78,0.0,5.0,69,0.00,,,0.00,weatherlink.com 1.10,2013-01-14 05:34:00,
2013-01-13 23:49:00,28.7,20.0,30.08,ENE,78,0.0,5.0,69,0.00,,,0.00,weatherlink.com 1.10,2013-01-14 05:49:00,